Moffett NAS, CA

3:37 PM PDT on June 28, 2017 (GMT -0700)
Moffett Federal Air Field

Weather History for KNUQ - June, 2013

Change the Weather History Date:

Saturday, June 22, 2013

  Actual Average Record
Temperature  
Mean Temperature 68 °F 67 °F  
Max Temperature 80 °F 77 °F 99 °F (1989)
Min Temperature 56 °F 57 °F 51 °F (2003)
Degree Days  
Heating Degree Days 0    
Month to date heating degree days 11  
Since 1 June heating degree days 11  
Since 1 July heating degree days 2097  
Cooling Degree Days 3    
Month to date cooling degree days 36  
Year to date cooling degree days 110  
Since 1 June cooling degree days 36  
Growing Degree Days 18 (Base 50)    
Moisture  
Dew Point 50 °F    
Average Humidity 52    
Maximum Humidity 80    
Minimum Humidity 23    
Precipitation  
Precipitation 0.00 in 0.00 in 0.00 in (2017)
Month to date precipitation 0.00 0.09  
Year to date precipitation 1.79 9.62  
Since 1 July precipitation 9.56  
Sea Level Pressure  
Sea Level Pressure 29.92 in    
Wind  
Wind Speed 8 mph (NNW)    
Max Wind Speed 24 mph    
Max Gust Speed 28 mph    
Visibility 10 miles    
Events      
T = Trace of Precipitation, MM = Missing Value Source: NWS Daily Summary

Daily Weather History Graph

Daily Weather History Graph

Search for Another Location

Airport or City:

Trip Planner

Search our weather history database for the weather conditions in past years. The results will help you decide how hot, cold, wet, or windy it might be!

Date:

Astronomy

Jun. 22, 2013 Rise Set
Actual Time 5:47 AM PDT 8:32 PM PDT
Civil Twilight 5:16 AM PDT 9:03 PM PDT
Nautical Twilight 4:37 AM PDT 9:42 PM PDT
Astronomical Twilight 3:53 AM PDT 10:26 PM PDT
Moon 7:54 PM PDT (6/22) 5:04 AM PDT (6/22)
Length of Visible Light 15h 46m
Length of Day
14h 44m
Waxing Gibbous, 99% of the Moon is Illuminated
Jun 22
Waxing Gibbous
Jun 23
Full
Jun 29
Last Quarter
Jul 8
New
Jul 15
First Quarter

Hourly Weather History & Observations

Time (PDT) Temp. Dew Point Humidity Pressure Visibility Wind Dir Wind Speed Gust Speed Precip Events Conditions
12:56 AM 59.0 °F 52.0 °F 78% 29.96 in 10.0 mi NNE 3.5 mph - N/A   Clear
1:56 AM 57.9 °F 51.1 °F 78% 29.94 in 10.0 mi NE 3.5 mph - N/A   Clear
2:56 AM 57.9 °F 52.0 °F 81% 29.94 in 10.0 mi Calm Calm - N/A   Clear
3:56 AM 57.9 °F 52.0 °F 81% 29.93 in 10.0 mi Calm Calm - N/A   Clear
4:56 AM 55.9 °F 48.9 °F 77% 29.93 in 10.0 mi Calm Calm - N/A   Clear
5:56 AM 55.9 °F 48.9 °F 77% 29.94 in 10.0 mi Calm Calm - N/A   Clear
6:56 AM 59.0 °F 51.1 °F 75% 29.94 in 10.0 mi Calm Calm - N/A   Clear
7:56 AM 62.1 °F 51.1 °F 67% 29.95 in 10.0 mi Calm Calm - N/A   Clear
8:56 AM 64.9 °F 51.1 °F 61% 29.96 in 10.0 mi NNE 3.5 mph - N/A   Clear
9:56 AM 69.1 °F 53.1 °F 57% 29.95 in 10.0 mi North 4.6 mph - N/A   Clear
10:56 AM 72.0 °F 54.0 °F 53% 29.94 in 10.0 mi North 6.9 mph - N/A   Clear
11:56 AM 73.9 °F 50.0 °F 43% 29.94 in 10.0 mi North 11.5 mph - N/A   Clear
12:56 PM 79.0 °F 53.1 °F 40% 29.92 in 10.0 mi NNW 10.4 mph - N/A   Clear
1:56 PM 75.0 °F 54.0 °F 48% 29.91 in 10.0 mi NNW 17.3 mph - N/A   Clear
2:56 PM 73.9 °F 55.0 °F 52% 29.91 in 10.0 mi NNW 17.3 mph - N/A   Clear
3:56 PM 78.1 °F 55.0 °F 45% 29.90 in 10.0 mi North 23.0 mph 26.5 mph N/A   Clear
4:56 PM 80.1 °F 46.0 °F 30% 29.89 in 10.0 mi NNW 12.7 mph 23.0 mph N/A   Clear
5:56 PM 79.0 °F 37.9 °F 23% 29.89 in 10.0 mi WNW 13.8 mph 19.6 mph N/A   Clear
6:56 PM 75.9 °F 43.0 °F 31% 29.89 in 10.0 mi West 11.5 mph 20.7 mph N/A   Clear
7:56 PM 73.0 °F 45.0 °F 37% 29.89 in 10.0 mi NW 12.7 mph 17.3 mph N/A   Clear
8:56 PM 66.9 °F 48.0 °F 51% 29.90 in 10.0 mi NNW 9.2 mph - N/A   Clear
9:56 PM 63.0 °F 52.0 °F 67% 29.92 in 10.0 mi NW 13.8 mph - N/A   Clear
10:56 PM 62.1 °F 53.1 °F 72% 29.93 in 10.0 mi NNW 9.2 mph - N/A   Clear
11:56 PM 62.1 °F 54.0 °F 75% 29.92 in 10.0 mi North 3.5 mph - N/A   Clear